TimeCDT,TemperatureF,Dew PointF,Humidity,Sea Level PressureIn,VisibilityMPH,Wind Direction,Wind SpeedMPH,Gust SpeedMPH,PrecipitationIn,Events,Conditions,WindDirDegrees,DateUTC
12:14 AM,62.6,44.6,52,29.85,10.0,SSE,9.2,16.1,N/A,,Clear,150,2012-10-04 05:14:00
12:34 AM,62.6,44.6,52,29.85,10.0,SSE,9.2,-,N/A,,Clear,150,2012-10-04 05:34:00
12:54 AM,60.8,44.6,55,29.84,10.0,SE,11.5,-,N/A,,Clear,140,2012-10-04 05:54:00
1:14 AM,60.8,44.6,55,29.83,10.0,SSE,11.5,-,N/A,,Clear,150,2012-10-04 06:14:00
1:34 AM,60.8,44.6,55,29.83,10.0,SSE,9.2,-,N/A,,Clear,150,2012-10-04 06:34:00
1:54 AM,62.6,42.8,48,29.83,10.0,SSE,13.8,18.4,N/A,,Clear,160,2012-10-04 06:54:00
2:14 AM,62.6,42.8,48,29.82,10.0,South,13.8,17.3,N/A,,Clear,170,2012-10-04 07:14:00
2:34 AM,60.8,44.6,55,29.82,10.0,South,13.8,-,N/A,,Clear,170,2012-10-04 07:34:00
2:54 AM,60.8,44.6,55,29.83,10.0,South,9.2,-,N/A,,Clear,190,2012-10-04 07:54:00
3:14 AM,60.8,42.8,52,29.82,10.0,SSW,13.8,21.9,N/A,,Clear,200,2012-10-04 08:14:00
3:34 AM,60.8,39.2,45,29.83,10.0,SSW,15.0,23.0,N/A,,Clear,210,2012-10-04 08:34:00
3:55 AM,55.4,42.8,63,29.85,10.0,SW,15.0,24.2,N/A,,Clear,230,2012-10-04 08:55:00
4:14 AM,53.6,42.8,67,29.86,10.0,SW,15.0,21.9,N/A,,Clear,230,2012-10-04 09:14:00
4:34 AM,51.8,44.6,76,29.87,10.0,SW,18.4,28.8,N/A,,Clear,230,2012-10-04 09:34:00
4:55 AM,50.0,42.8,76,29.88,10.0,WSW,13.8,24.2,N/A,,Clear,240,2012-10-04 09:55:00
5:14 AM,48.2,42.8,82,29.89,10.0,WSW,17.3,21.9,N/A,,Scattered Clouds,240,2012-10-04 10:14:00
5:34 AM,50.0,42.8,76,29.90,10.0,WSW,12.7,21.9,N/A,,Overcast,250,2012-10-04 10:34:00
5:55 AM,48.2,42.8,82,29.91,10.0,WSW,17.3,21.9,N/A,,Overcast,240,2012-10-04 10:55:00
6:14 AM,48.2,42.8,82,29.91,10.0,WSW,11.5,21.9,N/A,,Overcast,250,2012-10-04 11:14:00
6:34 AM,48.2,42.8,82,29.93,10.0,WSW,19.6,25.3,N/A,,Overcast,240,2012-10-04 11:34:00
6:55 AM,48.2,41.0,76,29.94,10.0,WSW,16.1,26.5,N/A,,Overcast,250,2012-10-04 11:55:00
7:14 AM,46.4,39.2,76,29.96,10.0,WSW,17.3,29.9,N/A,,Overcast,250,2012-10-04 12:14:00
7:39 AM,46.4,39.2,76,29.95,10.0,West,18.4,29.9,N/A,,Overcast,260,2012-10-04 12:39:00
7:55 AM,46.4,39.2,76,29.95,10.0,WSW,13.8,24.2,N/A,,Overcast,250,2012-10-04 12:55:00
8:14 AM,46.4,39.2,76,29.96,10.0,WSW,15.0,25.3,N/A,,Overcast,250,2012-10-04 13:14:00
8:34 AM,46.4,37.4,71,29.97,10.0,WSW,16.1,21.9,N/A,,Overcast,240,2012-10-04 13:34:00
8:54 AM,44.6,37.4,76,29.98,10.0,WSW,17.3,23.0,N/A,,Mostly Cloudy,250,2012-10-04 13:54:00
9:14 AM,46.4,37.4,71,29.99,10.0,West,16.1,27.6,N/A,,Mostly Cloudy,260,2012-10-04 14:14:00
9:34 AM,44.6,35.6,71,29.99,7.0,West,17.3,31.1,N/A,,Mostly Cloudy,260,2012-10-04 14:34:00
9:54 AM,46.4,35.6,66,30.01,10.0,West,18.4,27.6,N/A,,Mostly Cloudy,260,2012-10-04 14:54:00
10:14 AM,44.6,35.6,71,30.02,10.0,West,20.7,34.5,N/A,,Scattered Clouds,260,2012-10-04 15:14:00
10:34 AM,44.6,35.6,71,30.02,7.0,West,16.1,27.6,N/A,,Mostly Cloudy,270,2012-10-04 15:34:00
10:54 AM,44.6,35.6,71,30.03,10.0,West,20.7,25.3,N/A,,Overcast,260,2012-10-04 15:54:00
11:14 AM,44.6,35.6,71,30.04,10.0,WSW,20.7,27.6,N/A,,Overcast,250,2012-10-04 16:14:00
11:34 AM,44.6,35.6,71,30.04,10.0,West,19.6,27.6,N/A,,Overcast,270,2012-10-04 16:34:00
11:54 AM,46.4,35.6,66,30.05,10.0,WSW,19.6,24.2,N/A,,Overcast,250,2012-10-04 16:54:00
12:14 PM,46.4,35.6,66,30.06,10.0,West,19.6,26.5,N/A,,Overcast,270,2012-10-04 17:14:00
12:34 PM,46.4,35.6,66,30.06,10.0,West,23.0,31.1,N/A,,Overcast,260,2012-10-04 17:34:00
12:54 PM,48.2,35.6,62,30.07,10.0,West,17.3,31.1,N/A,,Overcast,270,2012-10-04 17:54:00
1:14 PM,48.2,35.6,62,30.07,10.0,West,20.7,28.8,N/A,,Overcast,270,2012-10-04 18:14:00
1:34 PM,48.2,35.6,62,30.08,10.0,West,24.2,32.2,N/A,,Overcast,260,2012-10-04 18:34:00
1:54 PM,48.2,33.8,58,30.08,10.0,West,17.3,28.8,N/A,,Overcast,270,2012-10-04 18:54:00
2:14 PM,48.2,33.8,58,30.09,10.0,West,26.5,33.4,N/A,,Mostly Cloudy,270,2012-10-04 19:14:00
2:34 PM,48.2,33.8,58,30.09,10.0,West,20.7,34.5,N/A,,Mostly Cloudy,280,2012-10-04 19:34:00
2:54 PM,48.2,33.8,58,30.09,10.0,West,19.6,32.2,N/A,,Mostly Cloudy,280,2012-10-04 19:54:00
3:14 PM,48.2,33.8,58,30.10,10.0,WNW,26.5,33.4,N/A,,Mostly Cloudy,290,2012-10-04 20:14:00
3:34 PM,48.2,33.8,58,30.11,10.0,West,24.2,31.1,N/A,,Mostly Cloudy,270,2012-10-04 20:34:00
3:54 PM,48.2,33.8,58,30.11,10.0,WNW,24.2,32.2,N/A,,Mostly Cloudy,290,2012-10-04 20:54:00
4:14 PM,46.4,33.8,62,30.12,10.0,West,21.9,32.2,N/A,,Overcast,270,2012-10-04 21:14:00
4:34 PM,46.4,33.8,62,30.12,10.0,West,17.3,28.8,N/A,,Mostly Cloudy,270,2012-10-04 21:34:00
4:54 PM,46.4,32.0,57,30.12,10.0,West,26.5,33.4,N/A,,Scattered Clouds,280,2012-10-04 21:54:00
5:14 PM,46.4,32.0,57,30.13,10.0,West,17.3,27.6,N/A,,Scattered Clouds,270,2012-10-04 22:14:00
5:54 PM,46.4,32.0,57,30.14,10.0,WNW,21.9,26.5,N/A,,Scattered Clouds,300,2012-10-04 22:54:00
6:14 PM,44.6,32.0,61,30.15,10.0,West,16.1,25.3,N/A,,Mostly Cloudy,280,2012-10-04 23:14:00
6:34 PM,44.6,32.0,61,30.15,10.0,WNW,13.8,29.9,N/A,,Overcast,290,2012-10-04 23:34:00
6:54 PM,44.6,32.0,61,30.15,10.0,WNW,16.1,23.0,N/A,,Overcast,300,2012-10-04 23:54:00
7:14 PM,44.6,32.0,61,30.15,10.0,West,13.8,18.4,N/A,,Overcast,270,2012-10-05 00:14:00
7:34 PM,44.6,32.0,61,30.16,10.0,WNW,15.0,20.7,N/A,,Overcast,290,2012-10-05 00:34:00
7:54 PM,44.6,32.0,61,30.16,10.0,West,17.3,27.6,N/A,,Overcast,280,2012-10-05 00:54:00
8:14 PM,44.6,32.0,61,30.17,10.0,West,15.0,20.7,N/A,,Overcast,280,2012-10-05 01:14:00
8:34 PM,44.6,30.2,57,30.17,10.0,WNW,15.0,28.8,N/A,,Overcast,290,2012-10-05 01:34:00
8:54 PM,44.6,30.2,57,30.18,10.0,West,11.5,26.5,N/A,,Overcast,280,2012-10-05 01:54:00
9:14 PM,44.6,32.0,61,30.18,10.0,West,13.8,18.4,N/A,,Overcast,280,2012-10-05 02:14:00
9:34 PM,42.8,32.0,66,30.18,10.0,West,11.5,-,N/A,,Overcast,270,2012-10-05 02:34:00
9:54 PM,44.6,33.8,66,30.18,10.0,West,11.5,21.9,N/A,,Overcast,280,2012-10-05 02:54:00
10:14 PM,42.8,33.8,70,30.18,10.0,West,12.7,17.3,N/A,,Mostly Cloudy,260,2012-10-05 03:14:00
10:34 PM,42.8,33.8,70,30.18,10.0,West,10.4,19.6,N/A,,Mostly Cloudy,260,2012-10-05 03:34:00
10:54 PM,42.8,33.8,70,30.18,10.0,West,15.0,20.7,N/A,,Scattered Clouds,270,2012-10-05 03:54:00
11:15 PM,41.0,33.8,76,30.18,10.0,West,15.0,24.2,N/A,,Clear,270,2012-10-05 04:15:00
11:34 PM,39.2,33.8,81,30.18,10.0,West,18.4,21.9,N/A,,Clear,280,2012-10-05 04:34:00
11:54 PM,39.2,33.8,81,30.18,10.0,West,16.1,25.3,N/A,,Clear,270,2012-10-05 04:54:00